Location: Munkebjergskolens Observatorium
(55.3864°N, 10.3987°E)
Time: 08:32:55
(UTC+02:00)

JY1SAT - Pass Details

Date: 05 April 2023
Orbit: 555 x 574 km, 97.6° (Epoch: 03 June)

Event Time Altitude Azimuth Distance (km) Brightness Sun altitude
Exits shadow 21:59:24 29° 140° (SE) 1,047 ? -15.7°
Maximum altitude 22:01:16 61° 71° (ENE) 648 ? -15.9°
Drops below altitude 10° 22:05:17 10° 351° (N) 1,884 ? -16.4°
Sets 22:07:28 0° 348° (NNW) 2,791 ? -16.6°
